Phuket, Thailand

5:12 AM +07 on April 27, 2017 (GMT +0700)
Phuket International

Weather History for VTSP - November, 2013

Change the Weather History Date:

Wednesday, November 13, 2013

  Actual Average Record
Temperature  
Mean Temperature 80 °F -  
Max Temperature 88 °F 88 °F 95 °F (2002)
Min Temperature 71 °F 75 °F 71 °F (2013)
Cooling Degree Days 14    
Growing Degree Days 30 (Base 50)    
Moisture  
Dew Point 75 °F    
Average Humidity 82    
Maximum Humidity 96    
Minimum Humidity 59    
Precipitation  
Precipitation 1.38 in 0.18 in - ()
Sea Level Pressure  
Sea Level Pressure 29.77 in    
Wind  
Wind Speed 3 mph ()    
Max Wind Speed 12 mph    
Max Gust Speed -    
Visibility 5.3 miles    
Events Rain , Thunderstorm    
Averages and records for this station are not official NWS values.
T = Trace of Precipitation, MM = Missing Value Source: Averaged Metar Reports

Daily Weather History Graph

Daily Weather History Graph

Search for Another Location

Airport or City:

Trip Planner

Search our weather history database for the weather conditions in past years. The results will help you decide how hot, cold, wet, or windy it might be!

Date:

Astronomy

Nov. 13, 2013 Rise Set
Actual Time 6:17 AM +07 6:03 PM +07
Civil Twilight 5:56 AM +07 6:25 PM +07
Nautical Twilight 5:30 AM +07 6:51 PM +07
Astronomical Twilight 5:05 AM +07 7:16 PM +07
Moon 2:50 PM +07 (11/13) 2:27 AM +07 (11/13)
Length of Visible Light 12h 29m
Length of Day
11h 45m
Waxing Gibbous, 80% of the Moon is Illuminated
Nov 13
Waxing Gibbous
Nov 17
Full
Nov 26
Last Quarter
Dec 3
New
Dec 9
First Quarter

Hourly Weather History & Observations

Time (+07) Temp. Heat Index Dew Point Humidity Pressure Visibility Wind Dir Wind Speed Gust Speed Precip Events Conditions
12:00 AM 77.0 °F - 73.4 °F 89% 29.83 in 3.7 mi Calm Calm - N/A Rain Rain
12:30 AM 77.0 °F - 75.2 °F 94% 29.80 in 3.7 mi Calm Calm - N/A Rain Rain
1:00 AM 77 °F - 76 °F 95% 29.77 in 1 mi Calm Calm - - Rain , Thunderstorm Thunderstorms and Rain
1:00 AM 75.2 °F - 73.4 °F 94% 29.80 in 1.9 mi Calm Calm - N/A Rain Rain
1:30 AM 75.2 °F - 73.4 °F 94% 29.80 in 2.5 mi WSW 6.9 mph - N/A Rain Rain
2:00 AM 75.2 °F - 73.4 °F 94% 29.80 in 4.3 mi WSW 5.8 mph - N/A Rain Rain
2:30 AM 77.0 °F - 73.4 °F 89% 29.80 in 4.3 mi West 5.8 mph - N/A Thunderstorm Thunderstorm
3:00 AM 77.0 °F - 73.4 °F 89% 29.80 in 4.3 mi West 5.8 mph - N/A Thunderstorm Thunderstorm
3:30 AM 77.0 °F - 73.4 °F 89% 29.77 in 3.7 mi NW 8.1 mph - N/A Rain Rain
4:00 AM 77 °F - 76 °F 96% 29.75 in 4 mi Calm Calm - - Rain Light Rain
4:00 AM 77.0 °F - 73.4 °F 89% 29.77 in 3.7 mi NNW 8.1 mph - N/A Rain Rain
4:30 AM 77.0 °F - 73.4 °F 89% 29.77 in 4.3 mi NW 3.5 mph - N/A   Mostly Cloudy
5:00 AM 77.0 °F - 75.2 °F 94% 29.77 in 4.3 mi Calm Calm - N/A   Mostly Cloudy
5:30 AM 77.0 °F - 75.2 °F 94% 29.77 in 5.0 mi Calm Calm - N/A   Mostly Cloudy
6:30 AM 77.0 °F - 73.4 °F 89% 29.77 in 6.2 mi Calm Calm - N/A   Mostly Cloudy
7:00 AM 76 °F - 75 °F 95% 29.78 in 6 mi Calm Calm - -   Partly Cloudy
7:00 AM 77.0 °F - 73.4 °F 89% 29.77 in 6.2 mi Calm Calm - N/A   Mostly Cloudy
7:30 AM 77.0 °F - 75.2 °F 94% 29.77 in 6.2 mi Calm Calm - N/A   Mostly Cloudy
8:00 AM 80.6 °F 86.2 °F 75.2 °F 84% 29.77 in 6.2 mi ENE 3.5 mph - N/A   Mostly Cloudy
8:30 AM 80.6 °F 87.1 °F 77.0 °F 89% 29.83 in 6.2 mi East 4.6 mph - N/A   Mostly Cloudy
9:00 AM 82.4 °F 89.5 °F 75.2 °F 79% 29.83 in 6.2 mi East 3.5 mph - N/A   Mostly Cloudy
9:30 AM 84.2 °F 92.3 °F 75.2 °F 74% 29.83 in 6.2 mi ENE 6.9 mph - N/A   Mostly Cloudy
10:00 AM 84 °F - 78 °F 76% 29.81 in 6 mi Calm Calm - -   Scattered Clouds
10:00 AM 82.4 °F 88.2 °F 73.4 °F 74% 29.86 in 6.2 mi East 8.1 mph - N/A   Mostly Cloudy
10:30 AM 84.2 °F 90.9 °F 73.4 °F 70% 29.83 in 6.2 mi East 8.1 mph - N/A   Mostly Cloudy
11:00 AM 84.2 °F 92.3 °F 75.2 °F 74% 29.80 in 6.2 mi East 9.2 mph - N/A   Mostly Cloudy
11:30 AM 84.2 °F 92.3 °F 75.2 °F 74% 29.80 in 6.2 mi ENE 8.1 mph - N/A   Mostly Cloudy
12:00 PM 84.2 °F 92.3 °F 75.2 °F 74% 29.77 in 6.2 mi ENE 9.2 mph - N/A   Mostly Cloudy
12:30 PM 86.0 °F 95.1 °F 75.2 °F 70% 29.77 in 6.2 mi East 10.4 mph - N/A   Mostly Cloudy
1:00 PM 88 °F - 76 °F 59% 29.75 in 6 mi ESE 9.2 mph - -   Scattered Clouds
1:00 PM 86.0 °F 95.1 °F 75.2 °F 70% 29.74 in 6.2 mi East 9.2 mph - N/A   Mostly Cloudy
1:30 PM 86.0 °F 93.4 °F 73.4 °F 66% 29.74 in 6.2 mi East 9.2 mph - N/A   Mostly Cloudy
2:00 PM 84.2 °F 90.9 °F 73.4 °F 70% 29.71 in 6.2 mi East 9.2 mph - N/A   Mostly Cloudy
2:30 PM 84.2 °F 90.9 °F 73.4 °F 70% 29.71 in 6.2 mi East 8.1 mph - N/A   Mostly Cloudy
3:00 PM 86.0 °F 93.4 °F 73.4 °F 66% 29.71 in 6.2 mi East 6.9 mph - N/A   Mostly Cloudy
3:30 PM 86.0 °F 93.4 °F 73.4 °F 66% 29.71 in 6.2 mi ESE 5.8 mph - N/A   Mostly Cloudy
4:00 PM 86 °F - 76 °F 67% 29.70 in 6 mi Calm Calm - -   Scattered Clouds
4:00 PM 86.0 °F 93.4 °F 73.4 °F 66% 29.71 in 6.2 mi East 4.6 mph - N/A   Mostly Cloudy
4:30 PM 86.0 °F 93.4 °F 73.4 °F 66% 29.71 in 6.2 mi East 3.5 mph - N/A   Mostly Cloudy
5:00 PM 84.2 °F 92.3 °F 75.2 °F 74% 29.71 in 6.2 mi WSW 4.6 mph - N/A   Mostly Cloudy
5:30 PM 82.4 °F 89.5 °F 75.2 °F 79% 29.71 in 6.2 mi West 3.5 mph - N/A   Mostly Cloudy
6:00 PM 82.4 °F 89.5 °F 75.2 °F 79% 29.71 in 5.6 mi WSW 4.6 mph - N/A   Mostly Cloudy
6:30 PM 82.4 °F 89.5 °F 75.2 °F 79% 29.71 in 5.6 mi WSW 5.8 mph - N/A   Mostly Cloudy
7:00 PM 83 °F - 78 °F 82% 29.71 in 6 mi Calm Calm - -   Scattered Clouds
7:00 PM 82.4 °F 89.5 °F 75.2 °F 79% 29.74 in 5.6 mi Variable 2.3 mph - N/A   Mostly Cloudy
7:30 PM 80.6 °F 86.2 °F 75.2 °F 84% 29.74 in 5.6 mi Calm Calm - N/A   Mostly Cloudy
8:00 PM 80.6 °F 86.2 °F 75.2 °F 84% 29.77 in 5.6 mi Calm Calm - N/A   Mostly Cloudy
8:30 PM 78.8 °F - 75.2 °F 89% 29.77 in 5.6 mi Variable 1.2 mph - N/A   Mostly Cloudy
9:00 PM 78.8 °F - 75.2 °F 89% 29.80 in 5.6 mi Calm Calm - N/A   Mostly Cloudy
9:30 PM 78.8 °F - 75.2 °F 89% 29.80 in 5.0 mi Calm Calm - N/A   Mostly Cloudy
10:00 PM 80 °F - 78 °F 91% 29.79 in 6 mi Calm Calm - - Thunderstorm Thunderstorm
10:00 PM 78.8 °F - 75.2 °F 89% 29.83 in 4.3 mi Calm Calm - N/A Thunderstorm Thunderstorm
10:30 PM 78.8 °F - 75.2 °F 89% 29.83 in 4.3 mi East 3.5 mph - N/A Thunderstorm Thunderstorm
11:00 PM 77.0 °F - 75.2 °F 94% 29.83 in 3.1 mi East 11.5 mph - N/A Rain Rain
11:30 PM 77.0 °F - 73.4 °F 89% 29.83 in 4.3 mi Variable 2.3 mph - N/A   Mostly Cloudy